Temp_Advection
nan nan nan nan nan nan nan nan nan nan nan nan nan nan nan nan nan nan nan nan nan nan nan nan nan nan nan nan nan nan nan nan nan nan nan nan nan nan nan nan nan nan nan nan nan nan nan nan nan nan nan nan nan nan nan nan nan nan nan nan nan nan nan nan nan nan nan nan nan
nan 1 1 1 1 1 0 0 0 0 0 0 0 0 0 0 0 0 0 0 0 0 0 0 0 0 0 -0 -0 -0 -0 -0 -0 -0 -0 -0 -0 -0 0 0 0 0 0 0 0 0 0 0 0 0 0 0 1 1 0 0 0 0 0 0 0 0 0 0 0 0 0 0 nan
nan 1 1 1 1 1 0 0 0 0 0 0 0 0 0 0 0 0 0 0 0 0 0 0 0 0 -0 -0 -0 -0 -0 -0 -0 -0 -0 -0 -0 0 0 0 0 0 0 0 0 0 0 0 0 0 0 0 0 1 0 0 0 0 0 0 0 0 0 0 0 0 0 0 nan
nan 1 1 1 1 0 0 0 0 0 0 0 0 0 0 0 0 0 0 0 0 0 0 0 0 0 -0 -0 -0 -0 -0 -0 -0 -0 -0 -0 -0 0 0 0 0 0 0 0 0 0 0 0 0 0 0 0 0 0 0 0 0 0 0 0 0 0 0 0 0 0 0 0 nan
nan 1 1 1 1 0 0 0 0 0 0 0 0 0 0 0 0 0 0 0 0 0 0 0 0 -0 -0 -0 -0 -0 -0 -0 -0 -0 -0 -0 -0 0 0 0 0 0 0 0 0 0 0 0 0 0 0 0 0 0 0 0 0 0 0 0 0 0 0 -0 0 0 0 -0 nan
nan 1 1 1 1 0 0 0 0 0 0 0 0 0 0 0 0 0 0 0 0 0 0 0 0 -0 -0 -0 -0 -0 -0 -0 -0 -0 -0 -0 -0 -0 0 0 0 0 0 0 0 0 0 0 1 1 0 1 1 0 0 0 0 0 0 0 0 0 0 0 -0 0 0 -0 nan
nan 1 1 1 1 0 0 0 0 0 0 0 0 0 0 0 0 0 0 0 0 0 0 0 -0 -0 -0 -0 -0 -0 -0 -0 -0 -0 -0 -0 -0 -0 0 0 0 0 0 0 1 0 0 0 1 1 0 1 1 0 0 0 0 0 0 0 0 0 0 0 0 0 -0 -0 nan
nan 1 1 1 0 0 0 0 0 0 0 0 0 0 0 0 0 0 0 0 0 0 0 0 -0 -0 -0 -0 -0 -0 -0 -0 -0 -0 -0 -0 -0 0 0 0 0 0 0 0 0 0 0 0 0 0 0 0 1 0 0 0 0 -0 -0 0 0 0 0 0 0 0 0 -0 nan
nan 1 1 1 0 0 0 0 0 0 0 0 0 0 0 0 1 1 1 0 0 0 0 0 -0 -0 -0 -0 -0 -0 -0 -0 -0 -0 -0 -0 -0 0 0 0 0 0 0 0 0 0 0 0 0 0 0 0 0 0 0 0 0 0 -0 0 0 0 0 0 0 0 -0 -0 nan
nan 1 1 0 0 0 0 0 0 0 0 0 0 0 1 1 1 1 0 0 0 0 0 -0 -0 -0 -0 -0 -0 -0 -0 -0 -0 -0 -0 -0 -0 -0 0 0 0 0 0 0 0 0 0 0 0 1 0 0 0 0 0 0 0 0 0 -0 -0 0 0 0 0 0 0 -0 nan
nan 1 1 0 0 0 0 0 0 0 0 0 0 1 1 1 1 1 1 0 0 0 0 -0 -0 -0 -0 -0 -0 -0 -0 -0 -0 -0 -0 -0 -0 -0 0 0 0 0 0 0 0 0 0 0 0 0 1 0 0 0 0 0 0 0 0 0 -0 -0 0 0 0 0 0 0 nan
nan 1 1 0 0 0 0 0 0 0 0 0 0 1 1 1 1 1 1 0 0 0 0 -0 -0 -0 -0 -0 -0 -0 -0 -0 -0 -0 -0 -0 -0 -0 -0 0 0 0 0 0 0 0 0 0 0 0 0 1 0 0 0 0 -0 -0 0 0 0 0 0 0 0 0 0 0 nan
nan 1 0 0 0 0 0 0 0 0 0 0 1 1 1 1 1 0 0 0 0 0 -0 -0 -0 -0 -0 -0 -0 -0 -0 -0 -0 -0 -0 -0 -0 -0 -0 0 0 0 0 0 0 0 0 0 0 0 0 0 1 0 0 0 -0 -0 -0 0 0 -0 0 0 0 0 0 0 nan
nan 1 0 0 0 0 0 0 0 0 0 1 1 1 0 0 0 0 0 0 0 0 0 -0 -0 -0 -0 -0 -0 -0 -0 -0 -0 -0 -0 -0 -0 0 0 0 0 0 0 0 0 0 0 0 0 0 0 0 0 0 0 0 0 -0 -0 -0 -0 -0 -0 0 0 0 0 0 nan
nan 0 1 1 0 0 0 0 0 0 1 1 1 0 0 0 0 0 0 0 0 0 0 -0 -0 -0 -0 -0 -0 -0 -0 -0 -0 -0 -0 -0 -0 0 0 0 0 0 0 0 0 0 0 0 0 0 -0 -0 0 0 0 0 0 0 -0 -0 -0 -0 -0 0 0 0 0 0 nan
nan 1 1 0 0 0 0 0 0 0 1 1 1 0 0 0 0 0 0 0 0 0 -0 -0 -0 -0 -0 -0 -0 -0 -0 -0 -0 -0 -0 -0 -0 0 0 0 0 0 0 0 1 1 1 0 0 0 -0 -0 -0 0 0 0 0 0 0 0 -0 -0 -0 -0 0 0 0 0 nan
nan 1 1 0 0 0 0 0 0 1 1 1 0 0 0 0 0 0 0 0 0 0 -0 -0 -0 -0 -0 -0 -0 -0 -0 -0 -0 -0 -0 -0 -0 0 0 0 0 0 0 0 0 1 1 0 0 0 -0 -0 -0 -0 0 -0 -0 0 0 0 0 0 0 0 0 0 0 0 nan
nan 1 1 0 0 0 0 0 1 1 0 0 0 0 0 0 0 0 0 0 0 0 -0 -0 -0 -0 -0 -0 -0 -0 -0 -0 -0 -0 -0 -0 -0 0 0 0 0 0 0 0 0 0 0 0 0 0 0 0 0 -0 -0 -0 -0 0 0 0 0 0 0 0 1 1 1 1 nan
nan 1 1 0 0 0 0 0 1 0 0 0 0 0 0 0 0 0 0 0 0 -0 -0 -0 -0 -0 -0 -0 -0 -0 -0 -0 -0 -0 -0 -0 0 0 0 0 0 0 0 0 0 0 0 0 0 0 0 0 0 0 0 0 -0 -0 0 0 0 0 0 1 1 1 1 1 nan
nan 1 0 0 0 0 0 0 0 0 0 0 0 0 1 1 0 0 0 0 0 -0 -0 -0 -0 -0 -0 -0 -0 -0 -0 -0 -0 0 0 0 0 0 0 0 0 0 0 0 0 0 0 0 0 0 0 0 0 0 0 0 0 0 0 0 0 0 0 1 1 1 1 1 nan
nan 1 1 0 0 0 0 0 0 0 0 0 0 1 1 1 0 0 0 0 -0 -0 -0 -0 -0 -0 -0 -0 -0 -0 -0 -0 -0 0 0 0 0 0 0 0 0 0 0 0 0 0 0 0 0 0 -0 0 0 0 0 0 0 0 0 0 0 0 0 1 1 1 1 1 nan
nan 1 1 0 0 0 0 0 0 0 0 0 1 1 1 0 0 0 0 0 -0 -0 -0 -0 -0 -0 -0 -0 -0 -0 -0 0 0 0 0 0 0 0 0 0 0 0 0 0 0 0 0 0 0 0 0 -0 -0 -0 0 -0 -0 -0 0 0 0 0 0 0 1 1 1 1 nan
nan 1 1 0 0 0 0 0 0 0 0 1 1 1 0 0 0 0 0 0 0 -0 -0 -0 -0 -0 -0 -0 -0 -0 -0 -0 0 0 0 0 0 0 0 0 0 0 0 0 0 0 0 0 0 0 0 -0 -0 -0 -0 -0 -0 -0 -0 -0 -0 -0 0 0 0 1 1 1 nan
nan 1 0 0 0 0 0 0 0 1 1 1 1 0 0 0 0 0 0 0 -0 -0 -0 -0 -0 -0 -0 -0 -0 -0 -0 -0 0 0 0 0 0 0 0 0 0 0 0 0 0 0 -0 -0 -0 -0 -0 -0 -0 -0 -0 -0 -0 -0 -1 -1 -1 -1 -0 -0 0 0 1 1 nan
nan 0 0 0 0 0 0 0 1 1 1 1 0 0 0 0 0 0 0 0 0 -0 -0 -0 -0 -0 -0 -0 -0 0 0 0 0 0 0 1 1 1 0 0 0 1 1 0 0 0 0 -0 -0 -0 -0 -0 -0 -1 -1 -0 -0 -0 -1 -1 -1 -1 -1 -0 -0 0 1 1 nan
nan 0 0 0 0 0 0 0 1 1 1 1 0 0 0 0 0 0 0 0 0 0 -0 -0 -0 -0 -0 -0 0 0 0 0 0 0 0 0 0 1 1 1 1 1 1 1 0 0 0 0 0 0 -0 -0 -0 -0 -0 -0 -0 -0 -0 -0 -0 -0 -1 -1 -0 0 1 1 nan
nan 0 0 0 0 0 0 1 1 1 1 0 0 0 0 0 0 0 0 0 0 0 -0 -0 -0 -0 -0 -0 0 0 0 0 1 0 0 0 0 0 0 1 1 1 1 1 0 0 0 0 0 0 0 0 0 -0 -0 -0 -0 0 0 0 0 0 0 -0 -0 0 0 1 nan
nan 0 0 0 0 0 1 1 1 1 1 0 0 0 0 0 0 0 0 0 0 0 0 -0 -0 -0 -0 0 0 0 0 1 1 1 1 0 0 0 0 0 1 1 1 1 0 0 0 0 0 0 0 0 0 0 -0 -0 0 0 0 0 0 0 1 0 0 0 0 0 nan
nan 0 0 0 0 1 1 1 1 1 0 0 0 0 0 0 0 0 0 0 0 0 0 0 -0 -0 -0 0 0 0 0 1 1 1 1 0 0 0 0 0 0 1 1 1 0 0 0 0 0 0 0 0 0 0 0 -0 -0 0 0 0 0 1 1 1 1 1 1 0 nan
nan 0 0 0 0 1 1 1 1 1 0 0 0 0 0 0 0 0 0 0 0 0 0 -0 -0 -0 -0 0 0 0 0 1 1 1 1 0 0 0 0 0 0 1 1 1 0 0 0 0 0 0 0 0 0 0 0 0 0 0 0 0 0 1 1 1 1 1 1 1 nan
nan 0 0 0 1 1 1 1 1 0 0 0 0 0 0 0 0 0 0 0 0 0 -0 -0 -0 -0 0 0 0 0 0 0 1 1 1 0 0 0 0 0 0 0 1 1 0 0 0 0 -0 -0 0 0 0 0 0 0 0 0 0 0 0 1 1 1 1 1 1 1 nan
nan -0 0 0 1 1 1 1 0 0 0 0 0 0 0 0 0 0 0 0 0 0 -0 -0 -0 -0 0 0 0 0 0 0 1 1 1 0 0 0 0 0 0 0 1 1 0 0 0 0 0 0 0 0 0 0 0 0 0 0 0 0 0 1 1 1 1 1 1 1 nan
nan 0 0 1 1 1 1 1 0 0 0 0 0 0 0 0 0 0 0 0 0 -0 -0 -0 -0 -0 -0 0 0 0 0 0 0 0 1 1 0 0 -0 0 0 1 1 1 0 0 0 0 -0 0 0 0 0 0 0 0 0 0 0 0 1 1 1 1 1 1 1 1 nan
nan 0 1 1 1 1 1 1 0 0 0 0 0 0 0 0 0 0 0 0 0 -0 -0 0 0 -0 0 0 0 -0 -0 -0 0 0 0 0 0 0 -0 0 0 1 1 1 1 0 0 0 0 0 0 0 0 0 0 0 0 0 0 0 0 1 1 1 1 1 1 2 nan
nan 1 1 1 1 1 1 1 0 0 0 0 0 0 0 0 0 0 1 0 0 0 0 0 0 0 0 0 0 0 -0 -0 -0 0 0 0 0 0 -0 -0 0 1 1 1 1 0 0 0 0 0 0 0 0 -0 0 0 0 0 0 0 0 0 1 1 1 2 2 2 nan
nan 1 1 1 1 1 1 0 0 0 0 0 0 0 0 0 0 0 0 0 0 0 0 0 0 0 0 0 0 0 0 -0 -0 -0 0 0 0 -0 -0 -0 0 1 1 1 1 1 0 0 0 0 0 0 0 0 0 0 0 0 0 0 0 0 1 1 1 2 2 2 nan
nan 1 1 1 1 1 1 0 0 0 0 0 0 0 0 0 0 1 1 1 0 0 0 0 0 1 1 0 0 0 0 0 -0 -0 -0 0 0 0 -0 -1 -0 0 1 1 1 1 0 0 0 1 0 0 -0 0 0 0 0 0 0 -0 0 0 1 1 1 2 2 3 nan
nan 1 1 1 1 1 0 0 0 0 0 0 0 0 0 0 0 1 1 1 0 0 0 0 1 1 1 1 0 -0 -0 0 0 -0 -0 0 0 0 -0 -1 -0 0 1 1 1 1 0 0 1 1 0 0 0 0 0 0 0 0 -0 -0 0 0 1 1 1 1 2 3 nan
nan 1 1 1 1 0 0 0 0 0 0 0 0 0 0 0 0 0 1 1 1 0 0 0 0 1 1 1 0 -0 -0 -0 0 0 0 -0 0 0 -0 -1 -1 -0 0 1 1 1 1 0 1 1 1 0 0 0 0 0 0 0 -0 -0 -0 0 1 1 0 1 2 2 nan
nan 1 1 0 0 0 1 0 0 0 0 0 0 0 0 0 0 0 1 1 1 1 1 0 0 0 1 1 -0 -1 -1 -1 0 0 0 0 0 0 0 -0 -1 -0 0 1 1 1 1 0 1 1 1 1 0 0 0 0 -0 -0 -0 -0 0 0 0 0 0 0 1 2 nan
nan nan nan nan nan nan nan nan nan nan nan nan nan nan nan nan nan nan nan nan nan nan nan nan nan nan nan nan nan nan nan nan nan nan nan nan nan nan nan nan nan nan nan nan nan nan nan nan nan nan nan nan nan nan nan nan nan nan nan nan nan nan nan nan nan nan nan nan nan
Wind_Speed
29 28 27 26 25 25 24 23 22 21 21 20 19 19 18 17 16 16 15 15 15 15 15 15 16 16 17 17 18 19 20 21 21 22 23 23 24 25 25 26 26 27 27 27 27 27 27 27 27 27 28 28 28 28 29 29 29 30 30 30 31 31 31 32 32 32 33 33 33
29 28 27 27 26 25 24 23 23 22 21 20 20 19 18 17 16 16 16 15 15 15 15 16 16 17 17 18 19 19 20 21 22 22 23 24 25 25 26 26 27 27 28 28 28 28 28 28 28 28 28 28 29 29 29 29 30 30 30 30 31 31 31 32 32 32 32 32 33
29 29 28 27 27 26 25 24 23 22 21 20 20 19 18 17 17 16 16 16 16 16 16 16 16 17 17 18 19 20 20 21 22 22 23 24 25 26 26 27 27 28 28 28 28 28 28 28 28 28 28 29 29 29 29 30 30 30 30 31 31 31 31 32 32 32 32 32 32
30 29 29 28 27 26 25 24 23 22 21 21 20 19 18 18 17 16 16 16 16 16 16 16 16 17 18 18 19 20 21 21 22 23 23 24 25 26 26 27 27 28 28 28 29 29 29 29 29 29 29 29 29 29 30 30 30 30 31 31 31 31 31 31 31 32 32 32 32
30 30 29 28 27 26 25 24 23 22 22 21 20 20 19 18 17 17 16 16 16 16 16 16 17 17 18 18 19 20 21 21 22 23 24 24 25 26 27 27 28 28 28 29 29 29 29 29 29 29 29 29 29 30 30 30 30 31 31 31 31 31 31 31 31 31 31 32 32
31 30 30 29 27 26 25 24 23 22 22 21 21 20 19 18 17 17 16 16 16 16 17 17 17 17 18 18 19 20 21 22 22 23 24 25 25 26 27 27 28 28 28 29 29 29 29 29 29 29 29 29 30 30 30 30 30 31 31 31 31 31 31 31 31 31 31 31 31
31 31 30 29 27 26 25 24 23 23 22 22 21 20 20 19 18 17 16 16 16 16 17 17 17 17 18 19 19 20 21 22 23 23 24 25 25 26 26 27 27 28 28 28 29 29 29 29 29 29 29 29 30 30 30 30 30 31 31 31 30 30 30 30 31 31 31 31 31
31 31 30 28 27 26 25 24 23 23 22 22 21 21 20 19 17 17 16 16 16 16 17 17 17 18 18 19 20 20 21 22 23 24 24 25 25 26 26 27 27 28 28 28 28 28 29 29 29 29 29 29 29 29 30 30 30 30 30 30 30 30 30 30 30 30 31 31 31
32 31 29 28 27 26 25 24 23 23 22 22 21 21 19 18 17 17 16 16 16 17 17 17 17 18 18 19 20 21 21 22 23 24 24 25 26 26 26 27 27 27 27 28 28 28 28 28 29 29 29 29 29 29 29 30 30 30 30 30 30 30 30 29 30 30 30 31 31
32 31 29 28 27 26 25 24 24 23 23 22 21 20 19 18 17 17 16 16 17 17 17 17 17 18 19 19 20 21 22 23 23 24 25 25 26 26 26 27 27 27 27 27 28 28 28 28 28 28 28 29 29 29 29 29 29 30 30 30 30 29 29 29 29 30 30 30 31
32 31 29 28 27 26 25 24 24 23 23 22 21 20 19 18 17 17 17 17 17 17 17 17 18 18 19 20 21 21 22 23 24 24 25 25 26 26 27 27 27 27 27 27 28 28 28 28 28 28 28 28 28 28 29 29 29 29 29 29 29 29 29 29 29 29 30 30 31
32 30 29 28 27 26 25 24 24 23 23 22 21 20 19 18 17 17 17 17 17 17 17 18 18 19 19 20 21 22 23 24 24 25 25 26 26 26 27 27 27 27 27 27 27 28 28 28 28 28 28 28 28 28 28 29 29 29 29 29 29 29 29 29 29 30 30 30 31
31 30 29 28 27 26 25 24 24 23 22 21 20 19 19 18 17 17 17 17 17 17 17 18 18 19 20 20 21 22 23 24 25 25 26 26 26 27 27 27 27 27 27 27 27 27 28 28 28 28 28 28 28 28 28 28 28 29 29 29 29 29 29 29 30 30 30 31 31
32 30 29 28 26 26 25 24 24 23 22 21 20 19 18 18 17 17 17 17 17 17 17 18 19 19 20 21 22 23 24 25 25 26 26 26 27 27 27 27 27 27 27 27 27 27 27 27 27 28 28 28 28 27 28 28 28 28 29 29 29 29 30 30 30 30 30 30 31
32 30 29 28 27 26 25 24 23 23 22 21 20 19 18 18 17 17 17 17 17 17 18 18 19 20 21 22 23 24 24 25 26 26 26 27 27 27 27 27 27 27 27 27 27 27 27 27 27 27 28 28 27 27 27 28 28 28 29 29 29 30 30 30 30 30 30 30 30
32 31 29 28 27 26 25 24 23 22 22 21 20 19 18 18 18 17 17 17 17 17 17 18 19 20 21 22 23 24 25 26 26 26 27 27 27 27 27 27 27 27 27 27 27 27 27 27 27 27 27 27 27 27 27 28 28 28 29 29 29 30 30 30 30 30 30 30 30
32 31 29 28 27 26 25 24 23 22 21 21 20 19 19 18 18 18 17 17 17 17 17 18 19 20 22 23 24 25 26 26 26 27 27 27 27 27 27 27 27 27 27 27 27 26 26 26 27 27 27 27 27 27 27 28 28 28 29 29 29 30 30 30 30 30 30 30 30
32 31 30 28 27 26 25 24 23 22 21 21 20 19 19 18 18 18 17 17 17 17 18 19 20 21 22 23 24 25 26 26 27 27 27 27 27 27 27 27 27 27 27 27 26 26 26 26 26 27 27 27 27 27 28 28 28 28 29 29 29 29 29 29 29 29 29 29 30
32 31 30 29 28 26 25 24 23 22 21 21 20 19 19 18 18 18 17 17 17 17 18 19 20 22 23 24 25 26 26 26 27 27 27 27 27 27 27 27 27 27 27 27 26 26 26 26 26 26 27 27 27 28 28 28 28 29 29 29 29 29 29 29 29 29 29 29 30
32 31 30 29 28 26 25 24 23 22 21 21 20 19 19 18 18 17 17 17 17 18 19 20 21 22 23 24 25 26 26 27 27 27 27 27 27 27 27 27 27 26 26 26 26 26 26 26 26 26 27 27 27 28 28 28 29 29 29 29 29 29 29 29 29 29 29 29 30
32 31 30 29 27 26 25 24 23 22 21 20 20 19 19 18 17 17 17 17 18 18 19 20 21 22 24 24 25 26 26 27 27 27 27 27 26 26 26 26 26 26 26 26 26 26 26 26 26 26 27 27 27 28 28 29 29 29 29 30 30 30 30 30 30 30 30 30 30
32 31 30 29 27 26 25 24 23 22 21 20 20 19 18 18 17 17 17 17 18 19 20 21 22 23 24 25 25 26 27 27 27 27 27 26 26 26 26 26 26 26 26 25 25 26 26 26 26 27 27 27 28 28 28 29 29 30 30 30 30 30 30 30 30 30 30 30 30
32 31 30 28 27 26 25 23 22 21 21 20 19 18 18 17 17 17 17 18 18 19 20 21 22 23 24 25 26 26 27 27 27 27 26 26 26 26 26 26 26 25 25 25 25 26 26 26 27 27 27 28 28 29 29 29 30 30 31 31 31 31 31 31 31 31 30 30 30
32 31 30 28 27 26 24 23 22 21 20 19 19 18 17 17 17 17 17 18 19 20 21 22 23 24 25 26 26 27 27 27 27 26 26 26 26 25 25 25 25 25 25 25 25 26 26 26 27 27 28 28 29 29 30 30 30 31 31 31 32 32 32 31 31 31 31 30 30
32 31 29 28 27 25 24 23 22 21 20 19 18 18 17 17 17 17 18 19 19 20 21 22 23 24 25 26 27 27 27 27 26 26 26 26 25 25 25 25 25 25 25 25 25 26 26 27 27 28 28 29 30 30 30 31 31 31 32 32 32 32 32 32 32 31 31 31 30
32 30 29 28 26 25 24 23 22 21 20 19 18 18 17 17 17 18 18 19 20 21 22 23 24 24 25 26 27 27 27 27 26 26 26 26 25 25 25 25 25 25 25 25 25 26 26 26 27 28 28 29 30 30 31 31 31 31 32 32 32 32 32 32 32 32 31 31 31
31 30 29 27 26 24 23 22 21 20 19 19 18 18 18 18 18 18 19 20 20 21 22 23 24 25 26 26 27 27 27 26 26 26 26 26 26 25 25 25 25 25 25 25 25 26 26 26 27 27 28 29 30 30 31 31 32 32 32 32 32 32 32 32 33 32 32 32 31
31 29 28 27 25 24 23 22 21 20 19 19 18 18 18 18 19 19 20 20 21 22 23 23 24 25 26 27 27 27 27 27 26 26 26 26 26 26 26 25 25 25 25 25 26 26 26 27 27 27 28 29 30 31 31 32 32 32 32 32 33 33 33 33 33 33 33 32 32
30 29 27 26 25 24 23 22 20 20 19 19 18 18 19 19 19 20 20 21 22 23 23 24 25 26 26 27 27 27 27 27 27 27 27 27 27 26 26 26 26 25 25 25 26 26 27 27 27 28 28 29 30 31 31 32 32 32 33 33 33 33 33 33 33 33 33 32 32
29 28 27 25 24 23 22 21 20 19 19 19 19 19 19 19 20 20 21 22 22 23 23 24 25 26 26 27 27 28 28 28 28 27 27 27 27 27 27 26 26 26 26 26 26 27 27 28 28 28 29 29 30 31 32 32 32 33 33 33 33 33 33 33 33 33 33 32 32
29 27 26 25 24 23 22 21 20 19 19 19 19 20 20 20 20 21 21 22 23 23 24 25 26 26 27 27 28 28 28 28 28 28 28 28 28 27 27 27 26 26 26 26 27 27 28 28 28 29 29 30 30 31 32 32 33 33 33 33 33 33 33 33 33 33 32 32 31
28 27 26 25 23 22 21 20 20 20 20 20 20 20 20 20 21 21 22 23 23 24 25 25 26 27 27 28 28 29 29 29 28 28 28 28 28 28 28 27 27 27 26 27 27 28 28 29 29 29 30 30 31 32 32 33 33 33 33 33 33 33 33 33 33 33 32 31 30
27 26 25 24 23 22 21 20 20 20 20 20 20 21 21 21 21 22 22 23 24 24 25 26 26 27 28 28 29 29 29 29 29 29 29 28 28 28 28 28 27 27 27 27 28 28 29 29 29 30 30 31 31 32 33 33 33 34 34 34 33 33 33 33 33 32 32 31 29
27 26 25 24 22 21 20 20 20 20 20 21 21 21 21 21 21 22 22 23 24 25 26 26 27 28 28 29 29 29 30 30 30 29 29 29 29 29 29 29 28 27 27 28 28 29 29 29 30 30 31 31 32 33 33 34 34 34 34 34 34 33 33 33 32 32 31 30 29
27 25 24 23 22 21 20 20 20 20 21 21 21 21 21 21 22 22 23 24 25 26 27 27 28 28 29 29 30 30 30 30 30 30 30 30 30 30 30 29 29 28 28 28 29 29 29 30 30 31 31 32 33 33 34 34 34 34 34 34 34 34 33 33 32 31 30 29 28
26 25 23 22 21 21 20 20 21 21 21 21 21 21 21 21 22 23 24 24 25 26 27 28 29 29 30 30 30 30 30 31 31 31 30 30 30 30 30 30 29 29 28 28 29 30 30 31 31 31 32 33 33 34 34 34 34 34 34 34 34 34 34 33 32 31 30 29 28
25 24 23 22 21 21 21 21 21 21 21 21 21 21 21 22 23 24 24 25 26 27 28 29 30 30 30 30 31 31 31 31 32 32 31 31 31 31 31 31 31 30 29 29 29 30 31 31 31 32 32 33 34 34 34 34 35 34 34 34 35 34 34 33 32 31 30 28 28
24 23 22 21 21 21 21 21 21 21 21 21 21 21 22 23 24 25 26 26 27 28 29 30 31 31 31 31 32 32 32 32 32 32 32 32 31 32 32 32 32 31 30 30 30 31 31 31 32 32 33 33 34 34 34 34 34 34 34 35 35 34 34 33 32 31 29 28 27
22 22 21 21 21 21 21 21 21 21 21 21 21 22 23 24 25 26 27 28 28 29 30 31 31 32 32 32 33 33 33 33 33 33 33 32 32 32 33 33 33 32 31 31 31 31 32 32 32 32 33 33 34 34 34 34 34 34 34 35 35 34 33 32 31 30 29 28 27
21 21 21 21 21 21 21 21 20 20 21 21 22 23 24 25 26 27 28 29 29 30 31 31 32 32 32 33 34 34 35 34 34 33 33 33 33 33 33 34 34 33 33 32 32 32 32 32 32 33 33 33 34 34 34 34 34 34 34 34 33 33 32 31 30 29 29 28 28
21 21 21 21 21 21 20 20 20 21 21 22 23 24 25 26 28 28 29 29 30 30 31 32 33 33 34 34 35 35 36 36 35 34 34 34 34 34 34 34 35 34 34 33 33 32 33 33 33 33 33 33 34 34 34 33 33 33 33 33 31 31 30 30 30 29 28 28 29
Wind_Direction
208 210 212 214 217 220 222 225 228 231 234 238 242 246 249 251 253 256 260 264 269 274 280 285 290 295 299 303 307 309 311 312 314 314 315 315 315 314 313 312 311 310 309 308 307 306 305 304 303 303 302 301 300 300 299 298 298 297 297 297 297 297 297 297 297 297 298 298 298
210 212 214 216 218 221 223 226 229 232 236 241 245 248 250 252 255 258 263 267 272 278 283 288 293 297 301 305 308 310 311 312 313 314 315 314 314 313 313 312 311 310 309 308 307 306 305 304 303 303 302 301 301 300 300 299 299 299 298 298 298 298 298 298 299 299 299 299 299
212 214 215 217 219 222 224 227 230 234 239 243 247 250 252 254 257 261 265 271 276 282 287 291 295 299 302 305 308 309 311 312 313 314 314 314 313 313 312 311 310 309 308 308 307 306 305 304 304 303 302 302 301 301 300 300 300 300 300 300 300 300 300 300 300 300 300 300 300
214 216 217 219 221 223 226 229 232 237 241 245 249 252 254 256 260 264 269 274 280 284 288 292 296 299 302 305 307 309 310 311 313 313 314 313 313 312 312 311 310 309 308 307 306 306 305 305 304 304 303 302 302 302 301 301 301 301 301 301 301 301 301 301 301 301 301 301 301
216 217 219 221 223 225 228 231 235 239 243 247 250 253 256 259 262 267 272 277 282 285 289 292 296 299 302 305 307 309 310 311 313 313 313 313 313 312 311 310 309 309 308 307 306 306 305 305 304 304 304 303 303 302 302 302 302 302 302 302 303 302 302 302 303 303 303 302 302
218 219 221 222 224 227 230 233 236 240 244 248 252 255 258 261 265 269 273 278 282 285 288 292 295 299 302 305 307 309 311 312 313 314 314 313 313 312 311 310 309 308 307 307 306 305 305 305 304 304 304 304 303 303 303 303 303 303 303 303 303 303 303 303 303 303 303 303 303
219 221 222 224 226 228 231 235 238 242 246 250 254 257 260 263 267 270 274 278 282 285 288 291 295 299 302 305 307 309 311 313 314 314 314 314 313 312 311 310 309 308 307 306 305 305 304 304 304 304 304 304 303 303 303 303 303 303 303 304 304 304 304 304 304 304 304 303 303
221 222 224 226 228 231 234 237 241 244 248 252 256 259 261 264 267 271 274 278 281 284 287 291 295 299 302 305 308 310 312 314 315 315 315 314 313 312 311 310 309 308 307 306 305 305 304 304 304 304 304 304 304 304 304 303 303 304 304 304 304 304 304 304 304 304 304 304 304
221 223 225 227 230 232 236 239 242 246 250 253 257 259 262 264 266 269 273 276 279 283 287 291 296 299 303 306 309 312 314 315 316 316 316 315 314 313 312 310 309 308 307 306 305 305 304 304 304 304 304 304 304 304 304 304 304 304 304 304 304 304 305 305 305 305 304 304 304
222 224 226 228 231 234 237 240 243 247 250 254 257 259 261 263 265 268 271 275 279 284 288 292 297 301 305 308 311 314 316 317 317 317 317 316 315 313 312 311 310 308 307 306 306 305 305 305 305 305 305 305 304 304 304 304 304 304 304 305 305 305 305 305 305 305 305 305 305
223 225 227 229 232 235 238 241 244 248 251 254 257 258 260 261 263 267 271 276 280 284 289 293 298 303 307 311 314 316 318 319 319 319 318 317 315 314 313 312 310 309 308 307 306 306 306 306 306 306 305 305 305 304 304 304 304 305 305 305 306 306 306 306 306 306 306 305 305
224 226 228 231 234 236 239 242 245 248 251 254 256 257 258 260 263 267 272 276 280 285 290 295 300 305 310 313 316 318 320 321 321 320 319 318 316 315 314 312 311 310 309 308 307 307 307 307 306 306 306 305 305 305 305 305 305 305 306 306 307 307 307 307 307 307 306 306 306
225 227 229 232 234 237 239 242 245 248 251 253 255 256 257 259 263 268 273 277 282 287 292 297 302 307 312 316 318 320 321 322 322 322 320 319 317 316 314 313 312 311 310 309 308 308 307 307 306 306 306 305 305 305 305 306 306 306 307 307 307 307 308 308 308 307 307 306 306
226 228 230 232 235 237 240 243 245 248 251 252 253 254 256 260 264 269 274 278 283 289 295 300 305 310 315 318 321 322 323 324 323 323 321 320 318 316 315 313 312 311 310 309 308 308 307 307 306 306 306 306 306 306 306 307 307 307 307 307 308 308 308 308 308 308 307 306 306
226 228 231 233 235 238 240 243 245 248 250 251 252 254 257 261 265 270 275 279 285 291 297 303 309 313 317 320 323 324 325 325 324 323 322 320 318 316 315 313 312 311 310 309 309 308 307 307 306 306 306 306 306 307 307 307 307 307 308 308 308 308 308 309 308 308 307 306 306
227 229 231 233 235 238 240 242 245 247 249 250 252 254 258 262 267 271 276 281 287 293 300 306 312 317 320 322 324 325 326 326 325 323 322 319 317 316 314 313 312 311 310 309 308 308 307 307 306 306 306 306 307 307 308 308 308 308 308 308 308 309 309 309 309 308 307 306 306
228 229 231 233 236 238 240 242 244 246 248 250 252 255 258 263 268 272 277 283 289 296 303 309 314 318 322 324 325 326 327 326 325 323 321 319 317 315 313 312 311 310 309 309 308 308 307 307 306 306 306 306 307 308 308 308 308 308 308 308 308 309 309 309 308 308 307 306 306
228 230 232 234 236 238 240 242 244 246 248 250 252 256 260 264 269 274 279 285 292 299 306 312 316 319 323 325 326 327 327 326 325 322 320 318 316 314 313 312 311 310 309 309 308 307 307 306 306 306 306 306 307 307 308 308 308 308 308 308 308 308 308 308 308 307 307 306 306
228 230 232 234 236 238 240 242 244 246 248 251 254 257 261 265 270 275 282 288 294 301 308 313 317 320 323 326 327 327 327 326 324 322 319 317 315 313 312 311 310 309 309 308 307 307 306 306 306 306 306 306 307 307 307 308 308 308 308 308 308 308 308 308 308 307 307 306 306
229 231 233 234 236 238 239 241 244 246 249 252 255 258 262 267 272 278 284 291 298 303 309 314 318 321 324 326 327 327 326 325 323 320 318 316 314 312 311 310 309 308 308 307 307 306 306 305 305 305 306 306 307 307 307 307 307 307 307 307 308 308 308 308 308 307 307 307 307
229 231 233 235 236 237 239 241 244 247 250 253 256 259 264 268 274 280 287 294 300 305 310 314 318 322 325 326 328 327 326 324 322 319 316 314 312 311 310 309 308 308 307 307 306 305 305 305 305 305 306 306 306 306 306 306 306 306 307 307 307 308 308 308 308 307 307 307 307
229 231 232 234 236 237 239 242 245 248 251 254 257 261 265 270 276 282 289 295 301 306 311 314 318 322 325 326 327 327 325 323 320 318 315 313 311 310 309 308 307 307 306 306 305 304 304 304 304 305 305 305 305 305 305 306 306 306 307 307 308 308 308 308 308 308 308 307 307
229 230 232 233 235 237 239 242 245 249 252 255 258 262 267 272 278 285 291 297 302 306 311 315 319 322 325 326 326 326 324 322 319 317 314 312 310 309 307 307 306 306 305 305 304 303 303 304 304 304 304 305 305 305 306 306 307 307 308 308 308 308 308 308 308 308 308 308 308
228 229 231 233 235 237 240 243 246 249 252 255 259 264 269 274 280 287 292 298 303 307 311 315 319 322 324 325 326 324 323 320 317 315 312 310 309 307 306 306 305 305 304 304 303 303 303 304 304 305 305 305 306 306 307 308 308 309 309 309 309 309 309 309 308 308 309 308 307
227 229 231 233 236 238 241 244 247 250 253 256 261 266 271 276 282 288 293 298 303 307 312 316 319 322 323 324 324 323 321 318 316 313 310 309 307 306 305 305 304 304 304 303 303 303 303 304 305 306 307 307 308 308 309 309 309 309 309 309 309 309 309 309 309 309 308 308 307
227 229 231 234 236 239 242 245 248 251 254 258 263 268 273 278 284 289 294 299 304 308 313 316 319 321 322 323 322 321 319 317 314 311 309 307 306 305 304 304 304 304 303 303 302 302 303 304 305 306 307 308 308 308 308 308 308 308 308 308 308 308 308 308 308 308 308 307 305
228 229 232 235 237 240 243 246 249 252 255 260 264 270 275 280 285 290 294 299 304 309 313 316 318 319 320 321 321 320 318 315 312 310 308 306 305 304 304 303 303 303 303 302 302 302 303 303 304 305 306 307 307 307 307 307 307 308 308 308 308 307 307 307 307 307 307 306 305
228 230 233 236 238 241 244 247 250 253 257 262 267 272 277 282 286 290 295 300 305 309 313 315 316 317 319 319 319 318 316 314 311 309 307 305 304 303 303 303 303 303 302 302 302 302 302 303 303 304 305 306 306 306 306 307 307 307 307 307 307 307 306 306 306 306 306 305 304
229 231 234 236 239 243 246 248 251 254 258 264 269 274 278 283 287 291 296 301 306 309 312 313 315 316 317 318 317 316 314 313 310 308 306 305 303 303 303 303 303 302 302 301 301 301 301 302 303 304 304 305 305 306 306 306 306 307 306 306 306 306 306 305 305 305 305 304 303
230 232 235 238 241 244 246 249 252 256 261 266 271 276 280 284 288 293 298 302 306 308 310 312 313 315 315 315 315 314 313 311 310 308 305 304 303 302 302 302 302 302 301 301 300 300 300 301 302 303 304 305 305 305 306 306 306 306 306 305 306 305 305 305 304 304 303 303 302
230 233 236 239 242 245 247 251 254 259 263 269 273 277 281 286 290 295 299 303 306 308 309 311 312 313 313 314 313 312 311 310 308 306 304 303 302 301 301 301 301 301 301 300 300 300 300 301 302 303 304 305 305 305 305 305 305 305 305 305 305 305 305 304 304 303 302 301 300
231 234 237 240 243 245 248 252 256 261 266 271 275 279 283 288 293 297 301 304 306 307 309 309 310 311 312 312 311 310 309 308 306 305 303 302 301 301 300 300 301 301 300 300 299 299 300 301 302 303 304 305 305 305 304 304 304 304 304 304 305 305 304 304 303 302 301 300 299
233 236 238 241 243 246 249 254 259 264 268 273 277 281 286 290 295 299 302 304 305 306 306 307 308 308 309 309 308 308 307 306 305 303 302 302 301 301 300 300 300 301 300 300 299 299 300 301 302 303 304 304 304 304 304 304 304 304 304 304 304 304 304 303 302 301 300 299 298
234 237 239 242 244 247 251 256 261 266 270 275 279 283 288 292 296 300 302 303 304 305 305 306 306 306 307 306 306 305 305 304 303 302 302 302 301 301 300 300 301 301 300 300 299 299 300 301 302 303 303 304 304 304 304 304 304 304 304 304 304 304 304 303 301 300 299 298 298
235 238 240 242 245 249 253 258 263 268 272 276 281 286 290 294 298 300 301 302 303 303 304 305 305 305 305 304 304 303 303 303 302 301 301 301 301 301 301 301 301 301 300 300 299 299 300 300 301 302 303 303 303 304 304 304 304 304 304 304 304 304 303 302 301 299 298 298 298
237 239 241 244 248 252 256 260 265 269 274 279 284 289 292 296 298 300 301 302 302 302 303 303 303 303 303 302 302 302 301 301 301 301 301 301 301 302 301 301 301 301 301 300 299 299 299 300 301 302 302 303 303 303 304 304 304 304 304 304 304 303 303 302 301 300 299 299 299
237 240 243 246 250 254 259 263 267 271 276 281 287 291 294 296 298 300 300 301 301 301 302 302 302 301 301 301 301 300 300 300 300 301 301 302 302 302 302 302 301 301 301 300 299 299 299 299 300 301 302 302 303 303 304 304 304 303 303 303 303 303 303 302 302 301 301 301 301
238 241 245 249 253 257 261 266 270 275 280 285 289 292 294 296 298 299 300 300 299 300 300 301 301 300 300 300 300 299 299 299 300 301 302 302 302 303 302 302 302 301 301 300 299 299 299 299 300 301 301 302 302 303 303 303 303 302 302 303 303 303 304 304 304 304 304 303 302
240 243 247 252 256 260 264 269 274 279 284 288 291 293 294 296 297 299 299 299 299 299 299 299 299 300 299 299 299 298 299 299 300 301 302 302 303 302 302 302 301 301 301 301 300 299 299 299 300 300 301 301 302 302 302 302 302 302 302 303 304 304 305 305 306 306 306 304 303
242 246 250 254 259 263 268 273 278 282 286 289 291 293 294 296 297 298 299 299 299 298 298 298 298 298 298 298 298 298 299 299 300 301 301 302 302 302 302 301 301 301 301 300 300 299 299 299 299 299 300 300 301 301 301 301 301 301 302 303 304 305 306 306 306 306 305 304 303
244 248 253 257 262 267 272 277 281 285 287 290 291 293 294 296 297 298 299 298 298 297 297 297 297 297 297 297 297 298 299 299 300 300 301 301 301 301 301 300 300 300 300 300 300 299 298 298 298 298 299 299 300 300 300 300 301 301 302 303 304 304 305 305 305 304 303 303 303
Height
1529 1530 1531 1531 1532 1533 1533 1533 1534 1534 1534 1534 1535 1535 1535 1536 1536 1536 1536 1536 1536 1535 1535 1535 1534 1534 1534 1533 1533 1533 1532 1532 1531 1530 1530 1529 1528 1528 1527 1526 1525 1524 1523 1522 1521 1519 1519 1518 1517 1516 1515 1514 1514 1513 1512 1511 1511 1510 1509 1509 1508 1507 1507 1506 1505 1504 1504 1503 1502
1528 1529 1529 1530 1531 1531 1531 1532 1532 1533 1533 1534 1534 1534 1534 1534 1534 1535 1535 1535 1534 1534 1534 1534 1533 1533 1532 1532 1531 1531 1531 1530 1530 1529 1529 1528 1527 1526 1525 1524 1523 1522 1521 1520 1519 1518 1517 1516 1515 1514 1513 1513 1512 1511 1510 1509 1509 1508 1508 1507 1506 1505 1505 1504 1503 1503 1502 1501 1500
1527 1528 1528 1529 1529 1529 1530 1530 1531 1532 1532 1533 1533 1533 1533 1533 1534 1534 1534 1534 1533 1533 1533 1532 1532 1531 1531 1530 1530 1529 1529 1529 1528 1528 1527 1526 1525 1524 1524 1523 1521 1520 1519 1518 1517 1516 1515 1514 1513 1512 1511 1511 1510 1509 1508 1508 1507 1506 1506 1505 1504 1504 1503 1502 1501 1501 1500 1499 1499
1525 1526 1527 1527 1528 1528 1529 1529 1530 1530 1531 1531 1532 1532 1532 1532 1532 1532 1532 1532 1532 1532 1531 1531 1530 1530 1529 1529 1529 1528 1528 1527 1527 1526 1526 1525 1524 1523 1522 1521 1520 1519 1518 1516 1515 1514 1513 1512 1511 1510 1509 1509 1508 1507 1506 1506 1505 1504 1504 1503 1502 1502 1501 1500 1499 1499 1498 1497 1497
1524 1524 1525 1526 1526 1527 1528 1528 1529 1529 1530 1530 1530 1531 1531 1531 1531 1531 1531 1531 1531 1530 1530 1529 1529 1529 1528 1528 1527 1527 1526 1526 1525 1525 1524 1523 1523 1522 1520 1519 1518 1517 1516 1515 1514 1513 1511 1510 1509 1509 1508 1507 1506 1505 1504 1504 1503 1502 1502 1501 1500 1500 1499 1499 1498 1497 1496 1495 1495
1523 1523 1524 1524 1525 1526 1526 1527 1528 1528 1529 1529 1529 1529 1529 1530 1530 1530 1530 1529 1529 1529 1529 1528 1528 1527 1527 1526 1526 1525 1525 1524 1524 1523 1523 1522 1521 1520 1519 1518 1517 1515 1514 1513 1512 1511 1510 1509 1508 1507 1506 1505 1504 1503 1503 1502 1501 1501 1500 1499 1499 1498 1497 1497 1496 1495 1494 1494 1493
1521 1522 1522 1523 1524 1524 1525 1526 1526 1527 1527 1527 1528 1528 1528 1528 1529 1528 1528 1528 1528 1528 1527 1527 1526 1526 1525 1525 1524 1524 1523 1523 1522 1521 1521 1520 1519 1519 1517 1516 1515 1514 1513 1511 1510 1509 1508 1507 1506 1505 1504 1503 1503 1502 1501 1500 1499 1499 1498 1498 1497 1497 1496 1495 1494 1493 1493 1492 1491
1520 1520 1521 1522 1523 1524 1524 1524 1525 1525 1526 1526 1526 1527 1527 1527 1527 1527 1527 1527 1527 1526 1526 1525 1525 1524 1524 1524 1523 1522 1522 1521 1520 1520 1519 1519 1518 1517 1516 1514 1514 1512 1511 1510 1509 1507 1506 1505 1504 1504 1503 1502 1501 1500 1499 1499 1498 1497 1496 1496 1495 1495 1494 1493 1492 1492 1491 1490 1489
1518 1519 1520 1521 1521 1522 1523 1523 1524 1524 1524 1524 1525 1525 1525 1525 1525 1525 1525 1525 1525 1525 1524 1524 1524 1523 1523 1522 1521 1521 1520 1519 1519 1518 1518 1517 1516 1515 1514 1513 1512 1510 1509 1508 1507 1506 1504 1504 1503 1502 1501 1500 1499 1498 1498 1497 1496 1495 1494 1494 1494 1493 1492 1492 1491 1490 1489 1488 1487
1517 1518 1519 1519 1520 1521 1521 1522 1522 1522 1523 1523 1523 1524 1524 1524 1524 1524 1524 1524 1524 1524 1523 1523 1522 1522 1521 1520 1520 1519 1518 1518 1517 1516 1516 1515 1514 1513 1512 1511 1510 1509 1508 1506 1505 1504 1503 1502 1501 1500 1499 1498 1498 1497 1496 1495 1494 1494 1493 1492 1492 1491 1490 1490 1489 1488 1487 1486 1485
1515 1516 1517 1518 1519 1519 1520 1520 1520 1521 1521 1521 1522 1522 1522 1523 1523 1523 1523 1523 1523 1522 1522 1521 1521 1520 1519 1519 1518 1517 1516 1516 1515 1514 1514 1513 1512 1511 1510 1509 1508 1507 1506 1504 1503 1502 1501 1500 1499 1498 1498 1497 1496 1495 1494 1493 1493 1492 1491 1490 1490 1489 1488 1488 1487 1486 1485 1484 1483
1514 1515 1516 1517 1517 1518 1518 1519 1519 1519 1519 1520 1520 1520 1521 1521 1521 1521 1521 1521 1521 1521 1520 1520 1519 1519 1518 1517 1516 1515 1514 1514 1513 1513 1512 1511 1510 1509 1508 1507 1506 1505 1504 1503 1501 1500 1499 1498 1497 1496 1496 1495 1494 1493 1493 1492 1491 1490 1489 1489 1488 1487 1486 1486 1485 1484 1483 1482 1481
1513 1514 1514 1515 1516 1516 1517 1517 1517 1518 1518 1518 1519 1519 1519 1519 1520 1520 1520 1520 1520 1519 1519 1518 1517 1517 1516 1515 1514 1513 1513 1512 1511 1510 1510 1509 1508 1507 1506 1505 1504 1503 1502 1500 1499 1498 1497 1496 1495 1494 1494 1493 1492 1492 1491 1490 1489 1488 1487 1487 1486 1485 1484 1484 1483 1482 1481 1480 1479
1511 1512 1513 1514 1514 1514 1515 1515 1516 1516 1516 1517 1517 1517 1518 1518 1518 1519 1519 1519 1518 1518 1517 1516 1515 1515 1514 1513 1512 1511 1511 1510 1509 1509 1508 1507 1506 1505 1504 1503 1502 1501 1500 1499 1498 1497 1495 1494 1494 1493 1492 1491 1490 1490 1489 1488 1487 1486 1485 1484 1484 1483 1482 1482 1481 1480 1479 1478 1477
1509 1510 1511 1512 1512 1513 1513 1514 1514 1514 1515 1515 1515 1516 1516 1517 1517 1517 1517 1517 1517 1516 1515 1514 1514 1513 1512 1511 1510 1509 1509 1508 1507 1507 1506 1505 1504 1503 1502 1501 1500 1499 1498 1497 1496 1495 1494 1493 1492 1491 1490 1489 1489 1488 1487 1486 1485 1484 1484 1483 1482 1481 1480 1479 1479 1478 1477 1476 1475
1508 1509 1509 1510 1511 1511 1512 1512 1513 1513 1514 1514 1514 1514 1515 1515 1515 1515 1515 1515 1515 1514 1514 1513 1512 1511 1510 1509 1509 1508 1507 1506 1505 1505 1504 1503 1502 1501 1500 1499 1498 1497 1496 1495 1494 1493 1492 1491 1490 1489 1488 1487 1487 1486 1485 1484 1484 1483 1482 1481 1480 1479 1478 1477 1477 1476 1475 1474 1473
1506 1507 1508 1509 1509 1510 1510 1511 1511 1511 1512 1512 1513 1513 1513 1514 1514 1514 1514 1514 1513 1513 1512 1511 1510 1509 1509 1508 1507 1506 1505 1504 1504 1503 1502 1501 1500 1500 1499 1498 1497 1495 1494 1493 1492 1491 1490 1489 1489 1487 1486 1486 1485 1484 1484 1483 1482 1481 1480 1479 1478 1477 1476 1475 1475 1474 1473 1472 1471
1504 1505 1506 1507 1508 1508 1509 1509 1509 1510 1510 1511 1511 1512 1512 1512 1512 1512 1512 1512 1511 1511 1510 1509 1509 1508 1507 1506 1505 1504 1503 1503 1502 1501 1500 1499 1499 1498 1497 1496 1495 1494 1493 1491 1490 1489 1489 1488 1487 1486 1485 1484 1483 1482 1481 1481 1480 1479 1478 1477 1476 1476 1475 1474 1473 1472 1471 1470 1469
1503 1504 1504 1505 1506 1507 1507 1508 1508 1509 1509 1509 1510 1510 1510 1510 1511 1510 1510 1510 1509 1509 1509 1508 1507 1506 1505 1504 1504 1503 1502 1501 1500 1499 1499 1498 1497 1496 1495 1494 1493 1492 1491 1489 1489 1488 1487 1486 1485 1484 1483 1482 1481 1480 1480 1479 1478 1477 1476 1475 1475 1474 1473 1472 1471 1470 1469 1468 1467
1501 1502 1503 1504 1504 1505 1506 1506 1507 1507 1508 1508 1508 1509 1509 1509 1509 1509 1509 1508 1508 1507 1507 1506 1505 1504 1504 1503 1502 1501 1500 1499 1499 1498 1497 1496 1495 1494 1493 1492 1491 1490 1489 1488 1487 1486 1485 1484 1483 1482 1481 1480 1479 1479 1478 1477 1476 1475 1474 1474 1473 1472 1471 1470 1469 1468 1467 1466 1465
1500 1500 1501 1502 1503 1504 1504 1505 1505 1506 1506 1507 1507 1507 1507 1507 1507 1507 1507 1506 1506 1505 1505 1504 1504 1503 1502 1501 1500 1499 1499 1498 1497 1496 1495 1494 1494 1492 1491 1490 1489 1488 1487 1486 1485 1484 1483 1482 1481 1480 1479 1479 1478 1477 1476 1475 1474 1473 1473 1472 1471 1470 1469 1468 1467 1466 1465 1464 1463
1498 1499 1500 1501 1501 1502 1503 1503 1504 1504 1505 1505 1505 1505 1506 1506 1505 1505 1505 1504 1504 1504 1503 1502 1502 1501 1500 1499 1499 1498 1497 1496 1495 1494 1494 1493 1492 1490 1489 1489 1487 1486 1485 1484 1483 1482 1481 1480 1479 1479 1478 1477 1476 1475 1474 1473 1472 1471 1470 1469 1469 1468 1467 1466 1465 1464 1463 1462 1461
1497 1498 1498 1499 1500 1501 1501 1502 1502 1503 1503 1504 1504 1504 1504 1504 1504 1504 1503 1503 1503 1502 1501 1500 1500 1499 1498 1497 1497 1496 1495 1494 1494 1493 1492 1491 1490 1489 1488 1487 1485 1484 1484 1483 1481 1480 1479 1478 1478 1477 1476 1475 1474 1473 1472 1471 1470 1469 1468 1467 1466 1466 1465 1464 1463 1462 1461 1460 1459
1495 1496 1497 1498 1499 1499 1500 1500 1501 1501 1502 1502 1502 1502 1502 1502 1502 1502 1502 1501 1501 1500 1499 1499 1498 1497 1496 1496 1495 1494 1494 1493 1492 1491 1490 1489 1488 1487 1486 1485 1484 1483 1482 1481 1479 1479 1477 1476 1475 1474 1474 1472 1471 1470 1469 1469 1468 1467 1466 1465 1464 1463 1462 1461 1461 1460 1459 1458 1457
1494 1494 1495 1496 1497 1498 1499 1499 1499 1500 1500 1500 1500 1501 1501 1500 1500 1500 1500 1499 1499 1498 1497 1497 1496 1495 1494 1494 1493 1492 1491 1490 1489 1489 1488 1487 1486 1485 1484 1483 1482 1481 1480 1479 1478 1477 1476 1474 1473 1472 1471 1470 1469 1468 1467 1466 1465 1464 1463 1462 1461 1460 1459 1459 1458 1457 1456 1455 1454
1492 1493 1494 1495 1496 1496 1497 1498 1498 1498 1499 1499 1499 1499 1499 1499 1499 1499 1498 1498 1497 1496 1495 1495 1494 1493 1493 1492 1491 1490 1489 1489 1488 1486 1485 1485 1484 1483 1482 1481 1480 1479 1478 1477 1476 1475 1474 1473 1472 1470 1469 1468 1467 1466 1465 1464 1463 1462 1461 1460 1459 1458 1457 1456 1455 1454 1454 1453 1452
1491 1492 1493 1494 1494 1495 1496 1496 1496 1497 1497 1497 1497 1497 1497 1497 1497 1497 1496 1496 1495 1494 1494 1493 1492 1492 1491 1490 1489 1489 1488 1487 1485 1484 1484 1483 1482 1481 1480 1479 1478 1477 1476 1475 1474 1473 1472 1471 1470 1469 1468 1466 1465 1464 1463 1462 1461 1460 1459 1458 1457 1456 1455 1454 1453 1452 1451 1450 1449
1489 1490 1491 1492 1493 1494 1494 1494 1495 1495 1495 1495 1496 1496 1495 1495 1495 1495 1494 1494 1493 1492 1492 1491 1490 1490 1489 1488 1487 1486 1486 1485 1484 1483 1481 1480 1479 1479 1478 1477 1476 1475 1474 1474 1472 1471 1470 1469 1469 1467 1466 1465 1463 1462 1461 1460 1459 1458 1457 1456 1455 1454 1453 1452 1450 1449 1449 1448 1447
1488 1489 1490 1491 1492 1492 1493 1493 1494 1494 1494 1494 1494 1494 1494 1494 1493 1493 1492 1492 1491 1490 1489 1489 1488 1488 1487 1486 1485 1484 1484 1483 1482 1480 1479 1478 1477 1476 1476 1475 1474 1474 1473 1472 1470 1469 1468 1467 1466 1465 1464 1463 1462 1460 1459 1458 1457 1456 1455 1454 1453 1452 1451 1449 1448 1447 1446 1445 1444
1487 1488 1489 1490 1490 1491 1491 1492 1492 1492 1492 1492 1492 1492 1492 1492 1491 1491 1490 1489 1489 1488 1488 1487 1486 1485 1485 1484 1483 1482 1481 1481 1480 1479 1477 1476 1475 1474 1474 1473 1472 1471 1471 1470 1469 1467 1466 1465 1464 1464 1463 1461 1460 1458 1457 1456 1455 1454 1453 1452 1451 1450 1449 1448 1446 1445 1444 1443 1442
1486 1487 1488 1489 1489 1489 1490 1490 1490 1490 1490 1490 1490 1490 1490 1490 1489 1489 1488 1487 1487 1486 1485 1485 1484 1483 1483 1482 1481 1480 1479 1479 1478 1477 1475 1474 1473 1472 1472 1471 1470 1469 1469 1468 1467 1465 1464 1463 1462 1461 1460 1459 1458 1456 1455 1454 1453 1452 1450 1449 1449 1448 1447 1445 1444 1443 1442 1441 1440
1485 1486 1486 1487 1488 1488 1489 1489 1489 1489 1489 1489 1489 1489 1488 1488 1488 1487 1486 1485 1485 1484 1483 1483 1482 1481 1480 1479 1479 1478 1477 1476 1475 1474 1474 1472 1471 1470 1469 1469 1468 1468 1467 1466 1464 1463 1462 1461 1460 1459 1458 1457 1456 1454 1453 1452 1450 1449 1448 1447 1446 1445 1444 1443 1442 1441 1440 1439 1438
1484 1484 1485 1486 1486 1487 1487 1487 1487 1487 1487 1487 1487 1487 1486 1486 1485 1485 1484 1483 1483 1482 1481 1480 1480 1479 1478 1478 1477 1476 1475 1474 1474 1473 1471 1470 1469 1468 1467 1466 1466 1465 1464 1464 1462 1461 1460 1459 1458 1457 1456 1455 1453 1452 1451 1449 1448 1447 1446 1445 1444 1443 1442 1441 1440 1439 1438 1437 1435
1482 1483 1484 1484 1485 1485 1486 1486 1485 1485 1485 1485 1485 1485 1484 1484 1484 1483 1482 1481 1481 1480 1479 1479 1478 1477 1476 1475 1475 1474 1473 1472 1471 1470 1469 1468 1467 1466 1465 1464 1464 1463 1463 1461 1460 1459 1458 1457 1456 1455 1454 1452 1451 1449 1448 1447 1446 1445 1444 1443 1442 1441 1440 1439 1438 1437 1435 1434 1433
1481 1482 1483 1483 1484 1484 1484 1484 1484 1484 1484 1484 1484 1483 1483 1482 1482 1481 1480 1479 1479 1478 1477 1476 1476 1475 1474 1473 1473 1472 1471 1470 1469 1468 1467 1466 1465 1464 1463 1462 1461 1461 1460 1459 1458 1457 1455 1454 1454 1452 1451 1450 1449 1447 1446 1445 1444 1442 1441 1440 1439 1439 1438 1437 1435 1434 1433 1432 1431
1480 1481 1481 1482 1483 1483 1483 1483 1483 1482 1482 1482 1482 1481 1481 1480 1480 1479 1479 1478 1477 1476 1475 1474 1474 1473 1472 1471 1470 1469 1469 1467 1466 1465 1464 1464 1463 1461 1460 1459 1459 1459 1458 1457 1456 1454 1453 1452 1451 1450 1449 1447 1446 1445 1444 1442 1441 1440 1439 1438 1437 1436 1435 1434 1433 1432 1431 1430 1429
1479 1480 1480 1481 1481 1481 1481 1481 1481 1481 1480 1480 1480 1479 1479 1479 1478 1477 1477 1476 1475 1474 1473 1472 1471 1471 1470 1469 1468 1467 1466 1465 1464 1463 1462 1461 1460 1459 1458 1457 1456 1456 1455 1455 1454 1452 1451 1450 1449 1448 1446 1445 1443 1442 1441 1439 1438 1437 1436 1435 1434 1433 1432 1431 1430 1429 1428 1427 1426
1478 1479 1479 1479 1479 1480 1480 1479 1479 1479 1479 1479 1478 1478 1477 1477 1476 1475 1475 1474 1473 1472 1471 1470 1469 1468 1468 1467 1466 1464 1464 1463 1462 1460 1459 1459 1458 1457 1455 1454 1453 1453 1453 1452 1451 1450 1449 1448 1447 1445 1444 1443 1441 1439 1438 1437 1436 1434 1434 1432 1431 1430 1429 1429 1428 1426 1425 1424 1424
1477 1478 1478 1478 1478 1478 1478 1478 1478 1478 1477 1477 1477 1476 1475 1475 1474 1474 1473 1472 1471 1469 1469 1468 1467 1466 1465 1464 1463 1462 1461 1460 1459 1458 1457 1456 1455 1454 1453 1451 1450 1450 1450 1450 1449 1448 1446 1445 1444 1443 1442 1440 1439 1437 1436 1434 1433 1432 1431 1430 1429 1427 1426 1426 1425 1424 1423 1422 1421
1476 1476 1476 1477 1477 1477 1477 1476 1476 1476 1476 1475 1475 1474 1474 1473 1472 1471 1471 1470 1469 1467 1466 1465 1464 1464 1463 1462 1460 1459 1458 1457 1457 1456 1455 1454 1453 1452 1451 1449 1448 1447 1447 1447 1446 1445 1444 1443 1442 1441 1439 1438 1436 1435 1434 1432 1431 1429 1428 1427 1426 1425 1424 1423 1422 1421 1420 1419 1419
1475 1475 1475 1475 1475 1475 1475 1475 1474 1474 1474 1474 1473 1472 1472 1471 1470 1469 1468 1468 1466 1465 1464 1463 1462 1461 1460 1459 1458 1456 1455 1454 1454 1453 1453 1451 1450 1449 1448 1447 1446 1445 1444 1444 1444 1443 1441 1440 1439 1438 1437 1435 1434 1432 1431 1430 1428 1427 1425 1424 1424 1423 1421 1420 1419 1419 1418 1417 1416